Theta_e
358 359 358 356 357 357 354 352 359 357 353 352 354 358 360 360 363 362 361 361 355 359 362 357 358 362 357 355 354 354 351 351 345 349 354 359 363 358 357 362 365 361 358
358 361 357 358 356 354 354 351 359 358 351 343 343 354 361 363 363 361 360 360 357 359 361 361 358 355 361 358 358 353 349 355 350 345 349 350 353 360 364 361 362 354 356
358 358 356 355 355 354 355 357 358 363 355 350 351 359 361 361 362 364 363 362 359 358 357 356 356 359 356 357 360 356 354 351 353 349 345 348 348 350 358 360 361 360 360
357 356 356 355 355 355 356 356 355 360 359 359 360 361 361 362 362 360 360 360 361 359 359 358 359 354 355 355 355 357 354 353 353 352 349 348 349 350 355 350 350 356 354
358 357 357 356 358 359 360 359 359 360 358 358 359 361 362 361 354 360 362 357 356 357 359 357 357 353 349 350 356 355 355 351 350 347 346 349 349 347 347 351 349 347 349
359 359 360 353 359 356 360 358 360 359 360 360 360 357 356 355 344 344 361 357 355 355 354 359 359 355 355 344 343 343 349 352 350 349 344 345 347 348 351 352 346 345 342
358 359 357 358 357 356 358 358 357 358 358 358 360 360 360 361 341 341 349 360 359 359 357 356 355 349 352 360 348 340 340 339 341 350 347 347 347 349 353 350 347 350 348
359 358 358 358 356 358 355 357 357 358 358 358 359 359 358 357 339 335 344 356 356 358 356 358 358 357 357 357 357 354 356 356 354 348 349 351 352 353 352 350 350 348 348
359 357 358 359 357 357 355 357 357 358 358 358 359 358 359 359 334 334 340 349 348 352 353 357 359 358 345 341 354 353 352 351 345 340 342 341 340 338 339 344 339 337 335
360 360 362 361 359 356 355 353 358 360 356 358 358 359 350 359 329 327 334 348 350 351 357 357 341 349 330 330 353 352 347 349 350 351 351 345 338 344 335 344 344 338 336
362 363 363 363 360 361 361 359 359 358 357 357 357 358 357 353 345 325 325 349 353 352 348 351 354 326 324 326 326 351 346 339 346 347 345 346 346 346 349 346 347 344 342
362 363 362 363 361 361 361 361 360 357 357 356 355 354 353 354 336 325 326 324 333 347 347 349 336 321 323 326 330 332 328 329 343 341 340 338 338 339 342 349 352 352 349
359 357 360 361 361 361 360 359 355 355 350 351 351 350 350 353 350 323 321 322 322 335 350 333 323 319 319 322 319 323 324 339 339 336 334 335 339 340 342 340 348 349 351
354 354 356 357 357 359 359 359 353 350 349 349 348 347 349 351 353 341 338 330 324 329 331 331 330 331 329 333 330 326 334 338 337 335 336 337 340 338 336 338 335 338 340
353 351 354 358 356 357 357 352 350 347 342 344 346 346 347 349 350 338 337 343 344 337 340 347 341 341 338 338 336 338 337 338 336 336 335 336 335 336 336 339 338 335 332
348 351 353 354 357 355 352 339 309 310 307 313 319 338 333 318 307 308 307 308 311 317 340 344 340 339 338 340 340 337 335 334 336 337 337 336 332 334 334 335 335 336 334
333 330 334 342 351 353 351 345 338 318 304 302 305 312 317 311 303 303 302 303 307 321 340 340 337 337 340 339 336 334 332 334 338 336 335 334 333 333 331 333 333 332 331
331 322 331 331 332 343 348 347 345 338 335 329 307 312 301 300 300 300 301 314 329 326 337 336 336 338 340 337 336 334 332 334 333 332 332 332 330 329 328 329 329 328 327
330 331 331 329 329 329 342 348 347 344 345 342 323 312 301 298 299 301 303 339 338 336 335 336 341 339 336 336 336 336 335 334 331 332 331 329 330 328 325 324 324 313 315
328 324 324 326 327 326 331 342 344 345 345 344 337 335 322 317 328 329 331 335 336 336 336 340 340 339 338 338 337 336 333 330 329 328 327 326 325 325 323 324 323 321 321
332 328 327 328 326 327 328 327 341 342 340 340 339 336 320 337 338 335 334 335 336 335 341 341 338 339 338 337 334 331 329 327 326 327 325 324 324 323 323 321 321 319 318
334 330 329 328 329 331 328 329 337 338 337 339 336 328 311 338 333 333 336 337 338 343 342 342 339 339 338 335 332 329 327 324 325 325 324 324 323 322 323 321 320 318 317
334 336 335 335 334 327 331 335 333 339 335 333 333 329 328 331 334 337 339 340 341 341 342 340 339 338 339 336 335 332 329 327 326 327 324 323 322 322 322 320 319 318 319
337 337 337 332 326 328 328 332 334 324 331 335 335 333 331 328 330 337 338 338 339 339 340 339 337 335 337 336 336 333 332 330 331 328 328 325 324 318 322 322 322 320 320
339 338 331 333 328 331 332 333 335 332 335 333 334 331 330 330 333 337 338 340 339 339 339 338 337 336 335 334 334 329 307 309 326 305 330 329 327 327 325 323 323 322 322
338 338 330 331 331 332 338 337 336 335 337 337 336 335 335 335 337 339 338 338 338 338 339 340 337 337 336 332 331 307 292 297 311 295 318 328 327 327 326 324 324 322 320
Wind_Speed
12 11 10 10 11 10 9 10 7 7 7 6 5 8 8 7 6 5 4 5 9 5 3 3 5 3 3 3 3 4 3 3 4 2 1 5 2 3 4 5 5 6 6
10 9 10 11 11 11 9 10 7 8 10 9 12 10 7 6 7 7 6 4 7 6 6 4 5 4 2 4 3 4 2 3 1 3 3 4 3 5 6 5 5 5 5
13 13 11 11 12 12 11 9 7 6 11 22 23 7 7 6 7 6 5 5 5 6 7 5 6 6 4 4 4 4 2 2 2 1 3 3 5 4 4 3 4 7 3
14 13 11 11 10 11 13 11 9 9 8 6 8 8 7 7 6 6 8 6 7 7 6 8 4 6 6 6 3 5 6 3 3 3 3 3 2 3 5 2 3 3 4
12 11 11 10 9 8 8 8 9 9 9 8 8 9 8 6 7 8 6 6 6 6 5 3 5 6 4 1 2 4 3 2 3 4 5 4 2 2 2 3 1 1 10
12 11 10 10 11 11 8 9 7 8 9 8 7 8 9 8 4 4 7 6 6 4 5 5 6 6 6 7 6 8 6 3 4 3 6 6 7 4 4 3 3 3 5
12 12 10 10 11 11 10 10 10 9 8 8 8 7 6 6 5 2 2 3 2 3 4 4 5 7 2 2 4 4 7 7 9 6 7 8 8 7 4 6 6 5 6
12 13 14 14 13 11 11 11 10 9 10 9 9 8 7 7 12 8 7 4 3 4 4 6 7 6 7 4 4 4 5 6 6 7 10 10 7 5 4 4 6 8 7
12 14 15 14 14 14 13 12 11 10 9 9 9 9 9 6 10 8 7 3 5 7 8 7 6 6 3 2 4 4 4 6 9 9 8 6 5 7 6 1 5 6 7
13 13 14 15 15 16 16 16 13 10 11 9 10 9 8 6 10 9 7 4 6 6 6 9 11 9 7 7 4 3 4 4 5 4 2 4 7 9 11 8 6 5 6
12 13 14 15 17 15 13 12 13 12 10 10 9 7 7 8 9 13 12 6 5 3 7 4 3 9 11 6 1 3 2 3 6 5 6 5 5 7 9 9 11 8 5
12 13 15 15 14 13 15 13 13 12 10 10 7 7 8 9 10 10 12 13 3 1 4 5 5 7 9 6 3 5 5 3 4 5 6 5 6 6 4 3 5 5 5
12 14 13 16 15 14 15 14 11 11 10 9 9 7 9 8 7 14 15 11 6 2 1 4 10 9 8 6 11 10 5 3 4 5 6 7 5 3 4 4 4 6 5
12 14 14 14 16 14 11 10 9 9 9 8 8 8 9 8 8 7 5 5 4 5 6 6 9 10 11 5 1 5 5 6 7 6 4 3 3 4 3 4 4 3 1
9 10 12 12 14 13 12 8 10 10 10 9 9 7 6 5 8 12 11 9 7 8 6 4 3 4 6 7 6 7 6 4 5 3 2 2 2 3 4 4 3 4 5
10 10 10 11 11 11 11 7 13 11 4 9 9 9 3 8 11 13 15 14 13 10 3 2 3 4 4 4 2 4 4 5 4 5 4 3 3 3 4 3 4 3 4
6 7 8 10 12 12 11 9 6 6 10 9 4 10 11 14 11 16 15 13 10 8 3 4 5 5 4 2 4 4 2 2 4 3 2 3 4 4 5 4 4 3 4
3 6 4 3 7 12 10 10 10 10 8 7 5 5 10 11 10 13 11 10 3 1 4 5 5 5 2 4 3 3 4 2 3 3 3 3 4 5 6 5 4 4 5
8 8 8 7 9 14 14 12 11 13 11 11 7 5 6 8 9 9 5 4 5 6 7 7 4 2 5 4 3 2 2 2 1 1 1 3 3 3 4 4 4 3 2
4 6 6 10 5 12 15 11 10 11 13 12 10 10 10 7 6 6 6 5 5 4 4 3 2 5 4 2 2 2 1 0 1 1 1 2 2 1 2 3 3 3 2
3 4 11 7 1 11 15 10 12 10 9 12 11 12 17 9 8 8 8 8 6 5 3 2 5 3 3 4 3 2 1 2 2 1 1 1 1 2 1 1 2 1 1
3 3 2 4 2 5 12 17 14 13 14 13 7 10 19 7 9 9 8 9 8 4 2 4 2 2 3 5 4 3 2 4 4 3 3 2 1 2 3 1 1 1 2
5 7 9 8 5 8 7 2 11 4 11 5 12 11 9 7 5 5 6 5 5 5 4 4 3 0 1 4 4 6 5 3 2 3 4 3 2 3 3 3 3 4 4
9 9 8 5 5 4 6 9 12 4 8 14 13 10 8 8 7 6 6 6 5 5 5 4 4 3 4 2 3 6 7 6 4 4 6 4 4 4 4 5 4 4 4
9 5 5 5 3 5 9 11 6 3 1 7 11 10 9 8 7 6 6 4 5 5 5 4 4 5 6 4 2 8 8 11 6 2 4 6 6 6 5 4 5 6 5
10 8 7 6 6 5 9 7 5 3 1 2 6 8 9 9 6 5 6 7 5 5 4 3 6 5 6 6 5 12 8 6 5 5 2 6 6 6 6 7 9 3 4
Wind_Direction
197 177 178 174 175 176 190 217 233 160 100 90 215 197 191 191 185 202 219 246 199 227 266 183 237 261 286 325 29 319 312 353 357 338 351 194 175 176 192 198 204 208 206
195 174 183 176 176 180 188 208 222 149 121 100 276 236 206 195 202 199 230 242 202 225 218 235 269 248 240 296 285 281 294 321 111 290 290 317 294 229 215 199 228 257 247
187 181 188 189 183 184 189 202 204 167 164 165 210 209 206 213 210 204 227 239 264 255 241 246 233 242 246 271 297 292 294 356 338 264 278 274 288 247 246 230 227 236 252
188 182 186 186 195 200 183 196 195 175 169 203 196 199 215 224 214 209 214 218 231 257 241 233 248 311 205 225 269 288 291 322 300 297 276 281 277 348 337 341 346 347 317
181 185 183 176 186 208 187 194 184 169 170 192 200 202 204 215 228 216 211 227 216 263 299 319 266 198 109 203 231 244 283 341 315 323 301 328 331 347 280 282 53 40 278
173 183 170 175 181 193 197 187 195 180 182 190 196 206 201 217 159 131 191 235 229 206 265 281 294 308 272 268 239 250 233 231 249 240 271 286 290 301 280 296 306 218 239
177 179 176 182 187 187 196 188 196 187 190 200 207 210 217 230 114 136 118 258 252 222 225 261 274 274 307 303 256 293 274 247 226 243 255 257 271 283 305 301 294 282 276
177 183 190 185 190 190 199 196 190 198 190 202 202 209 210 219 178 197 181 244 262 256 259 228 221 248 262 255 249 259 250 252 230 223 224 241 239 268 265 275 283 282 280
190 189 195 182 187 190 191 201 201 197 195 199 208 213 212 187 159 177 152 218 245 241 234 245 239 241 246 181 235 251 287 290 293 238 247 222 196 219 225 281 269 274 286
192 194 191 186 188 196 198 188 195 200 193 195 208 210 206 179 176 186 177 226 254 255 222 223 223 227 193 171 207 233 265 289 352 360 201 232 238 239 219 208 238 247 261
199 190 193 192 193 195 197 195 193 199 196 195 194 187 177 179 176 192 192 213 234 284 258 270 216 152 133 157 130 297 296 339 319 309 298 279 256 248 230 214 220 221 249
196 197 196 196 193 192 198 196 193 192 194 182 179 181 200 190 196 195 193 209 148 299 292 95 112 134 135 160 178 231 206 255 270 277 273 286 291 282 275 107 158 190 192
209 209 206 201 194 195 194 195 191 190 182 180 179 197 216 189 171 177 182 184 171 207 2 124 150 169 179 209 231 226 204 231 251 258 257 257 258 305 310 314 252 213 174
233 224 219 206 205 203 195 189 178 183 181 183 192 198 207 176 165 163 178 185 194 200 187 182 190 198 209 230 178 199 219 230 234 240 243 277 325 357 349 335 322 328 257
243 223 215 206 201 199 194 190 193 188 192 189 192 199 194 211 179 173 173 175 178 199 192 210 189 220 238 235 225 221 188 212 247 280 358 1 315 323 311 315 300 318 298
241 225 214 209 198 193 190 144 48 41 42 173 184 189 87 133 127 139 134 119 123 144 172 213 245 249 262 262 88 73 55 2 24 353 330 320 307 319 298 293 299 297 295
36 19 355 268 212 198 188 173 163 59 51 28 115 154 149 145 143 127 129 128 136 140 191 219 236 240 243 126 104 64 25 307 327 289 350 343 327 301 319 306 304 306 310
99 152 75 349 339 298 199 182 177 166 177 153 35 114 99 130 142 131 130 116 123 165 244 236 236 229 196 88 98 147 170 231 271 277 333 333 333 344 325 328 359 11 359
192 190 120 36 346 310 290 202 188 168 174 161 147 96 92 99 102 109 139 201 202 217 200 220 217 75 90 95 97 124 190 79 59 328 314 339 333 313 333 356 3 35 8
256 218 138 111 277 286 321 251 175 170 177 165 171 167 157 168 171 168 188 201 214 235 239 217 76 87 97 142 111 93 94 174 194 334 331 304 321 340 334 344 357 345 332
325 25 56 85 178 244 290 317 221 181 183 169 177 164 167 169 176 183 176 196 202 216 189 190 121 127 170 167 138 143 253 321 29 246 220 275 317 280 244 67 17 357 18
167 94 108 236 11 307 191 219 268 184 193 154 134 154 160 179 193 186 183 170 170 169 124 113 91 185 202 147 141 146 189 194 218 203 197 232 258 73 69 79 135 151 193
203 217 210 222 169 158 184 252 307 204 105 114 138 147 173 180 223 170 153 150 129 127 130 135 130 235 338 127 144 160 191 196 191 176 142 140 128 148 167 184 201 215 215
218 230 245 161 147 117 43 334 272 54 165 169 149 146 168 180 198 195 158 149 137 145 156 156 147 218 103 79 193 184 180 168 179 159 166 169 167 180 208 208 200 215 247
215 161 128 90 96 219 174 239 253 215 58 128 140 146 165 183 201 192 144 122 142 150 157 151 146 186 168 212 177 98 92 130 132 98 198 196 199 192 211 203 210 222 213
245 155 141 157 211 257 241 222 219 232 255 147 153 156 168 187 185 145 134 144 152 153 158 169 161 189 155 159 119 133 145 150 126 75 318 235 218 216 225 204 234 178 231